SKYSAT-C4

Last updated on Thu Oct 30 2025 00:02:31 GMT+0000 (Coordinated Universal Time)

1 41771U 16058B 25302.52213227 .00017929 00000+0 44345-3 0 9996 2 41771 96.9439 329.9007 0003051 64.4469 295.7093 15.40500018509861
UTC large
Height (km)
Speed (km/s)
/
Latitude / Longitude
Inclination (degrees)
Orbital Period (minutes)
Azimuth
Elevation
Range (km)
Doppler Factor

Next 0 passes for location: London (51.5072 / 0.1276)

Sorry there are no passes over London.